When you browse on this site, cookies collect data to enhance your experience and personalize the content and advertising you see.
Visit our Privacy Policy to learn more. By continuing to use the site, you agree to this use of cookies and data.

Meteo pe oră la Tucupita

Astăzi, 11 Iulie, Sâmbătă

Timp Temperatura Precipitaţii Vânt Presiune Umiditate
00:00 +25°C° 0.3 mm 1 m/s 759 mmHg 97%
01:00 +25°C° 0.3 mm 1 m/s 758 mmHg 97%
02:00 +25°C° 0 mm 1 m/s 758 mmHg 97%
03:00 +25°C° 1.9 mm 1 m/s 758 mmHg 98%
04:00 +25°C° 1.9 mm 1 m/s 758 mmHg 98%
05:00 +25°C° 1.9 mm 1 m/s 758 mmHg 98%
06:00 +25°C° 2.5 mm 1 m/s 758 mmHg 98%
07:00 +23°C° 2.5 mm 0 m/s 758 mmHg 98%
08:00 +23°C° 0 mm 0 m/s 759 mmHg 97%
09:00 +24°C° 0.4 mm 0 m/s 759 mmHg 93%
10:00 +25°C° 0.4 mm 0 m/s 759 mmHg 90%
11:00 +28°C° 0.4 mm 1 m/s 759 mmHg 86%
12:00 +30°C° 0.1 mm 1 m/s 758 mmHg 79%
13:00 +31°C° 0.1 mm 1 m/s 757 mmHg 72%
14:00 +32°C° 0.1 mm 2 m/s 756 mmHg 64%
15:00 +32°C° 0 mm 2 m/s 756 mmHg 67%
16:00 +32°C° 0 mm 2 m/s 756 mmHg 69%
17:00 +31°C° 0 mm 2 m/s 756 mmHg 72%
18:00 +30°C° 0.3 mm 2 m/s 756 mmHg 79%
19:00 +28°C° 0.3 mm 2 m/s 757 mmHg 86%
20:00 +27°C° 0.3 mm 1 m/s 757 mmHg 94%
21:00 +26°C° 0 mm 1 m/s 758 mmHg 95%
22:00 +26°C° 0 mm 1 m/s 758 mmHg 96%
23:00 +26°C° 0 mm 1 m/s 758 mmHg 97%

Mâine, 12 Iulie, Duminică

Timp Temperatura Precipitaţii Vânt Presiune Umiditate
00:00 +25°C° 0 mm 1 m/s 758 mmHg 97%
01:00 +25°C° 0 mm 1 m/s 758 mmHg 98%
02:00 +25°C° 0 mm 1 m/s 757 mmHg 99%
03:00 +25°C° 0.1 mm 1 m/s 757 mmHg 99%
04:00 +25°C° 0.1 mm 1 m/s 757 mmHg 99%
05:00 +23°C° 0.1 mm 0 m/s 757 mmHg 99%
06:00 +26°C° 0.2 mm 1 m/s 758 mmHg 96%
07:00 +27°C° 0.2 mm 1 m/s 758 mmHg 93%
08:00 +28°C° 0.2 mm 1 m/s 759 mmHg 90%
09:00 +29°C° 0.5 mm 2 m/s 759 mmHg 83%
10:00 +30°C° 0.5 mm 2 m/s 759 mmHg 76%
11:00 +32°C° 0.5 mm 2 m/s 759 mmHg 68%
12:00 +34°C° 0.3 mm 2 m/s 758 mmHg 65%
13:00 +34°C° 0.3 mm 2 m/s 758 mmHg 62%
14:00 +35°C° 0.3 mm 2 m/s 757 mmHg 58%
15:00 +34°C° 0.1 mm 2 m/s 757 mmHg 60%
16:00 +34°C° 0.1 mm 2 m/s 756 mmHg 61%
17:00 +34°C° 0.1 mm 2 m/s 756 mmHg 63%
18:00 +31°C° 0 mm 2 m/s 757 mmHg 71%
19:00 +29°C° 0 mm 2 m/s 757 mmHg 79%
20:00 +27°C° 0 mm 1 m/s 758 mmHg 87%
21:00 +27°C° 0 mm 1 m/s 758 mmHg 90%
22:00 +26°C° 0 mm 1 m/s 759 mmHg 93%
23:00 +26°C° 0 mm 1 m/s 759 mmHg 96%

Poimâine, 13 Iulie, Luni

Timp Temperatura Precipitaţii Vânt Presiune Umiditate
00:00 +26°C° 0.1 mm 1 m/s 759 mmHg 97%
01:00 +25°C° 0.1 mm 1 m/s 759 mmHg 98%
02:00 +25°C° 0.1 mm 1 m/s 758 mmHg 99%
03:00 +25°C° 0 mm 1 m/s 758 mmHg 99%
04:00 +25°C° 0 mm 1 m/s 758 mmHg 99%
05:00 +23°C° 0 mm 0 m/s 758 mmHg 99%
06:00 +26°C° 0 mm 1 m/s 759 mmHg 94%
07:00 +27°C° 0 mm 1 m/s 759 mmHg 89%
08:00 +28°C° 0 mm 2 m/s 760 mmHg 84%
09:00 +30°C° 0 mm 2 m/s 760 mmHg 76%
10:00 +32°C° 0 mm 2 m/s 760 mmHg 67%
11:00 +34°C° 0 mm 2 m/s 760 mmHg 58%
12:00 +34°C° 0.2 mm 2 m/s 759 mmHg 59%
13:00 +34°C° 0.2 mm 2 m/s 758 mmHg 60%
14:00 +34°C° 0.2 mm 3 m/s 758 mmHg 61%
15:00 +33°C° 0.1 mm 3 m/s 758 mmHg 65%
16:00 +33°C° 0.1 mm 3 m/s 757 mmHg 69%
17:00 +31°C° 0.1 mm 3 m/s 757 mmHg 73%
18:00 +29°C° 0 mm 2 m/s 758 mmHg 79%
19:00 +28°C° 0 mm 2 m/s 758 mmHg 85%
20:00 +27°C° 0 mm 1 m/s 759 mmHg 92%
21:00 +26°C° 0 mm 1 m/s 759 mmHg 93%
22:00 +26°C° 0 mm 1 m/s 759 mmHg 95%
23:00 +26°C° 0 mm 1 m/s 760 mmHg 96%

14 Iulie, Marţi

Timp Temperatura Precipitaţii Vânt Presiune Umiditate
00:00 +26°C° 0.1 mm 1 m/s 759 mmHg 97%
01:00 +25°C° 0.1 mm 1 m/s 759 mmHg 98%
02:00 +25°C° 0.1 mm 1 m/s 758 mmHg 99%
03:00 +25°C° 0.1 mm 1 m/s 758 mmHg 99%
04:00 +23°C° 0.1 mm 0 m/s 758 mmHg 98%
05:00 +23°C° 0.1 mm 0 m/s 758 mmHg 98%
06:00 +26°C° 0.5 mm 1 m/s 759 mmHg 96%
07:00 +27°C° 0.5 mm 1 m/s 759 mmHg 93%
08:00 +28°C° 0.5 mm 1 m/s 760 mmHg 91%
09:00 +28°C° 0.7 mm 1 m/s 760 mmHg 87%
10:00 +29°C° 0.7 mm 2 m/s 760 mmHg 84%
11:00 +30°C° 0.7 mm 2 m/s 760 mmHg 80%
12:00 +30°C° 0.7 mm 2 m/s 759 mmHg 79%
13:00 +31°C° 0.7 mm 2 m/s 759 mmHg 77%
14:00 +31°C° 0.7 mm 2 m/s 758 mmHg 76%
15:00 +30°C° 0.5 mm 2 m/s 758 mmHg 79%
16:00 +29°C° 0.5 mm 2 m/s 757 mmHg 83%
17:00 +29°C° 0.5 mm 2 m/s 757 mmHg 87%
18:00 +28°C° 0.1 mm 1 m/s 758 mmHg 90%
19:00 +27°C° 0.1 mm 1 m/s 758 mmHg 94%
20:00 +26°C° 0.1 mm 1 m/s 759 mmHg 97%
21:00 +25°C° 0 mm 1 m/s 759 mmHg 97%
22:00 +25°C° 0 mm 1 m/s 759 mmHg 98%
23:00 +25°C° 0 mm 1 m/s 759 mmHg 98%

15 Iulie, Miercuri

Timp Temperatura Precipitaţii Vânt Presiune Umiditate
00:00 +25°C° 0 mm 1 m/s 759 mmHg 98%
01:00 +25°C° 0 mm 1 m/s 759 mmHg 98%
02:00 +22°C° 0 mm 0 m/s 758 mmHg 99%
03:00 +22°C° 0 mm 0 m/s 758 mmHg 99%
04:00 +22°C° 0 mm 0 m/s 758 mmHg 99%
05:00 +22°C° 0 mm 0 m/s 758 mmHg 99%
06:00 +23°C° 0 mm 0 m/s 758 mmHg 95%
07:00 +26°C° 0 mm 1 m/s 759 mmHg 91%
08:00 +27°C° 0 mm 1 m/s 759 mmHg 88%
09:00 +29°C° 0 mm 1 m/s 759 mmHg 77%
10:00 +31°C° 0 mm 1 m/s 759 mmHg 66%
11:00 +34°C° 0 mm 2 m/s 759 mmHg 56%
12:00 +35°C° 0 mm 2 m/s 758 mmHg 53%
13:00 +35°C° 0 mm 2 m/s 758 mmHg 51%
14:00 +36°C° 0 mm 2 m/s 757 mmHg 49%
15:00 +35°C° 0.2 mm 2 m/s 756 mmHg 56%
16:00 +32°C° 0.2 mm 2 m/s 756 mmHg 64%
17:00 +31°C° 0.2 mm 2 m/s 756 mmHg 71%
18:00 +29°C° 0.1 mm 2 m/s 757 mmHg 78%
19:00 +28°C° 0.1 mm 2 m/s 757 mmHg 84%
20:00 +26°C° 0.1 mm 2 m/s 758 mmHg 90%
21:00 +26°C° 0 mm 2 m/s 758 mmHg 92%
22:00 +25°C° 0 mm 1 m/s 759 mmHg 94%
23:00 +25°C° 0 mm 1 m/s 759 mmHg 95%

16 Iulie, Joi

Timp Temperatura Precipitaţii Vânt Presiune Umiditate
00:00 +25°C° 0 mm 1 m/s 759 mmHg 96%
01:00 +25°C° 0 mm 1 m/s 758 mmHg 97%
02:00 +24°C° 0 mm 1 m/s 758 mmHg 98%
03:00 +24°C° 0.1 mm 1 m/s 758 mmHg 98%
04:00 +24°C° 0.1 mm 1 m/s 758 mmHg 99%
05:00 +24°C° 0.1 mm 1 m/s 758 mmHg 99%
06:00 +26°C° 0.1 mm 1 m/s 759 mmHg 94%
07:00 +27°C° 0.1 mm 1 m/s 759 mmHg 89%
08:00 +28°C° 0.1 mm 1 m/s 760 mmHg 85%
09:00 +29°C° 0.4 mm 2 m/s 760 mmHg 78%
10:00 +31°C° 0.4 mm 2 m/s 760 mmHg 71%
11:00 +32°C° 0.4 mm 2 m/s 760 mmHg 64%
12:00 +34°C° 0.4 mm 2 m/s 759 mmHg 62%
13:00 +34°C° 0.4 mm 2 m/s 758 mmHg 60%
14:00 +35°C° 0.4 mm 2 m/s 757 mmHg 58%
15:00 +34°C° 0.3 mm 2 m/s 757 mmHg 62%
16:00 +33°C° 0.3 mm 3 m/s 757 mmHg 66%
17:00 +31°C° 0.3 mm 3 m/s 757 mmHg 70%
18:00 +30°C° 0 mm 2 m/s 757 mmHg 76%
19:00 +28°C° 0 mm 2 m/s 758 mmHg 81%
20:00 +27°C° 0 mm 2 m/s 758 mmHg 87%
21:00 +26°C° 0 mm 1 m/s 759 mmHg 90%
22:00 +26°C° 0 mm 1 m/s 759 mmHg 92%
23:00 +25°C° 0 mm 1 m/s 759 mmHg 94%
Arată mai mult